Time,TemperatureF,DewpointF,PressureIn,WindDirection,WindDirectionDegrees,WindSpeedMPH,WindSpeedGustMPH,Humidity,HourlyPrecipIn,Conditions,Clouds,dailyrainin,SoftwareType,DateUTC
2013-09-27 00:01:00,76.1,54.4,28.20,ESE,119,4.0,4.0,47,0.00,,---,0.00,VWS V14.01,2013-09-27 05:01:00,
2013-09-27 00:06:00,76.1,54.4,28.20,South,173,11.0,11.0,47,0.00,,---,0.00,VWS V14.01,2013-09-27 05:06:00,
2013-09-27 00:11:00,76.1,54.4,28.20,South,179,7.2,11.0,47,0.00,,---,0.00,VWS V14.01,2013-09-27 05:11:00,
2013-09-27 00:16:00,75.9,54.3,28.20,SSE,154,4.9,11.0,47,0.00,,---,0.00,VWS V14.01,2013-09-27 05:16:00,
2013-09-27 00:21:00,75.9,54.3,28.20,SSE,162,8.1,11.0,47,0.00,,---,0.00,VWS V14.01,2013-09-27 05:21:00,
2013-09-27 00:26:00,75.7,54.1,28.20,South,177,4.0,11.0,47,0.00,,---,0.00,VWS V14.01,2013-09-27 05:26:00,
2013-09-27 00:31:00,75.7,54.1,28.20,SE,127,2.7,11.0,47,0.00,,---,0.00,VWS V14.01,2013-09-27 05:31:00,
2013-09-27 00:36:00,75.6,53.9,28.20,SE,126,5.8,11.0,47,0.00,,---,0.00,VWS V14.01,2013-09-27 05:36:00,
2013-09-27 00:42:00,75.4,53.8,28.20,SSE,155,5.8,11.0,47,0.00,,---,0.00,VWS V14.01,2013-09-27 05:42:00,
2013-09-27 00:47:00,75.4,53.8,28.20,SSE,152,4.0,11.0,47,0.00,,---,0.00,VWS V14.01,2013-09-27 05:47:00,
2013-09-27 00:52:00,75.4,53.2,28.20,ESE,111,5.4,11.0,46,0.00,,---,0.00,VWS V14.01,2013-09-27 05:52:00,
2013-09-27 00:57:00,75.2,53.0,28.20,WSW,253,5.4,11.0,46,0.00,,---,0.00,VWS V14.01,2013-09-27 05:57:00,
2013-09-27 01:02:00,75.2,53.0,28.20,East,88,6.3,8.1,46,0.00,,---,0.00,VWS V14.01,2013-09-27 06:02:00,
2013-09-27 01:07:00,75.2,53.0,28.20,ESE,123,4.0,8.1,46,0.00,,---,0.00,VWS V14.01,2013-09-27 06:07:00,
2013-09-27 01:13:00,75.0,52.9,28.20,SE,144,7.6,8.1,46,0.00,,---,0.00,VWS V14.01,2013-09-27 06:13:00,
2013-09-27 01:18:00,75.0,52.9,28.20,ESE,120,3.6,8.1,46,0.00,,---,0.00,VWS V14.01,2013-09-27 06:18:00,
2013-09-27 01:23:00,75.0,52.9,28.20,ESE,123,3.6,8.1,46,0.00,,---,0.00,VWS V14.01,2013-09-27 06:23:00,
2013-09-27 01:28:00,75.0,52.9,28.23,SSE,155,3.6,8.1,46,0.00,,---,0.00,VWS V14.01,2013-09-27 06:28:00,
2013-09-27 01:33:00,75.0,52.9,28.23,SE,137,3.1,8.1,46,0.00,,---,0.00,VWS V14.01,2013-09-27 06:33:00,
2013-09-27 01:38:00,75.0,52.3,28.23,SE,125,4.0,8.1,45,0.00,,---,0.00,VWS V14.01,2013-09-27 06:38:00,
2013-09-27 01:43:00,75.0,52.3,28.23,SE,135,4.0,8.1,45,0.00,,---,0.00,VWS V14.01,2013-09-27 06:43:00,
2013-09-27 01:48:00,75.2,51.8,28.23,SE,136,4.0,8.1,44,0.00,,---,0.00,VWS V14.01,2013-09-27 06:48:00,
2013-09-27 01:53:00,75.4,52.0,28.23,SE,142,4.0,8.1,44,0.00,,---,0.00,VWS V14.01,2013-09-27 06:53:00,
2013-09-27 01:58:00,75.6,51.5,28.23,SE,137,4.9,8.1,43,0.00,,---,0.00,VWS V14.01,2013-09-27 06:58:00,
2013-09-27 02:04:00,75.7,51.7,28.23,South,191,5.4,8.1,43,0.00,,---,0.00,VWS V14.01,2013-09-27 07:04:00,
2013-09-27 02:09:00,75.9,51.2,28.23,ESE,123,2.7,8.1,42,0.00,,---,0.00,VWS V14.01,2013-09-27 07:09:00,
2013-09-27 02:14:00,76.1,51.4,28.23,East,90,5.8,8.3,42,0.00,,---,0.00,VWS V14.01,2013-09-27 07:14:00,
2013-09-27 02:19:00,76.1,51.4,28.23,SSE,151,5.4,8.3,42,0.00,,---,0.00,VWS V14.01,2013-09-27 07:19:00,
2013-09-27 02:24:00,76.3,51.5,28.23,South,174,7.6,8.3,42,0.00,,---,0.00,VWS V14.01,2013-09-27 07:24:00,
2013-09-27 02:29:00,76.1,51.4,28.23,ESE,123,5.4,8.3,42,0.00,,---,0.00,VWS V14.01,2013-09-27 07:29:00,
2013-09-27 02:34:00,76.1,51.4,28.23,South,172,3.6,8.3,42,0.00,,---,0.00,VWS V14.01,2013-09-27 07:34:00,
2013-09-27 02:40:00,76.1,51.4,28.23,SSE,149,5.4,8.3,42,0.00,,---,0.00,VWS V14.01,2013-09-27 07:40:00,
2013-09-27 02:45:00,76.1,51.4,28.23,SE,124,6.3,8.3,42,0.00,,---,0.00,VWS V14.01,2013-09-27 07:45:00,
2013-09-27 02:49:00,76.1,51.4,28.23,ESE,117,3.1,8.3,42,0.00,,---,0.00,VWS V14.01,2013-09-27 07:49:00,
2013-09-27 02:54:00,75.9,51.2,28.23,SE,131,4.9,8.3,42,0.00,,---,0.00,VWS V14.01,2013-09-27 07:54:00,
2013-09-27 02:59:00,75.9,51.2,28.23,SE,133,5.8,8.3,42,0.00,,---,0.00,VWS V14.01,2013-09-27 07:59:00,
2013-09-27 03:04:00,75.9,51.2,28.23,South,177,7.2,7.2,42,0.00,,---,0.00,VWS V14.01,2013-09-27 08:04:00,
2013-09-27 03:09:00,75.7,51.0,28.23,SE,142,7.6,10.5,42,0.00,,---,0.00,VWS V14.01,2013-09-27 08:09:00,
2013-09-27 03:14:00,75.7,51.0,28.23,SSE,155,3.6,10.5,42,0.00,,---,0.00,VWS V14.01,2013-09-27 08:14:00,
2013-09-27 03:19:00,75.6,50.9,28.23,SE,146,4.0,10.5,42,0.00,,---,0.00,VWS V14.01,2013-09-27 08:19:00,
2013-09-27 03:25:00,75.6,50.9,28.23,SE,126,4.9,11.0,42,0.00,,---,0.00,VWS V14.01,2013-09-27 08:25:00,
2013-09-27 03:30:00,75.4,50.7,28.23,East,87,4.9,11.0,42,0.00,,---,0.00,VWS V14.01,2013-09-27 08:30:00,
2013-09-27 03:35:00,75.2,50.6,28.23,WNW,284,3.6,11.0,42,0.00,,---,0.00,VWS V14.01,2013-09-27 08:35:00,
2013-09-27 03:40:00,75.2,50.6,28.23,SSE,148,5.8,11.0,42,0.00,,---,0.00,VWS V14.01,2013-09-27 08:40:00,
2013-09-27 03:45:00,75.0,51.0,28.23,SE,145,4.9,11.0,43,0.00,,---,0.00,VWS V14.01,2013-09-27 08:45:00,
2013-09-27 03:50:00,75.0,51.0,28.23,ESE,123,2.7,11.0,43,0.00,,---,0.00,VWS V14.01,2013-09-27 08:50:00,
2013-09-27 03:55:00,74.8,50.9,28.23,SE,136,3.1,11.0,43,0.00,,---,0.00,VWS V14.01,2013-09-27 08:55:00,
2013-09-27 04:00:00,74.7,50.7,28.23,SE,125,3.6,3.6,43,0.00,,---,0.00,VWS V14.01,2013-09-27 09:00:00,
2013-09-27 04:05:00,74.5,50.5,28.23,SE,136,3.1,8.3,43,0.00,,---,0.00,VWS V14.01,2013-09-27 09:05:00,
2013-09-27 04:10:00,74.1,50.2,28.23,ESE,114,3.6,8.3,43,0.00,,---,0.00,VWS V14.01,2013-09-27 09:10:00,
2013-09-27 04:16:00,74.1,50.8,28.23,SE,143,5.8,8.3,44,0.00,,---,0.00,VWS V14.01,2013-09-27 09:16:00,
2013-09-27 04:21:00,73.9,50.7,28.23,ESE,108,4.0,8.3,44,0.00,,---,0.00,VWS V14.01,2013-09-27 09:21:00,
2013-09-27 04:26:00,73.9,50.1,28.23,SW,221,3.1,8.3,43,0.00,,---,0.00,VWS V14.01,2013-09-27 09:26:00,
2013-09-27 04:31:00,73.9,50.1,28.23,SE,128,3.6,8.3,43,0.00,,---,0.00,VWS V14.01,2013-09-27 09:31:00,
2013-09-27 04:36:00,73.9,50.1,28.23,SE,141,5.4,8.3,43,0.00,,---,0.00,VWS V14.01,2013-09-27 09:36:00,
2013-09-27 04:42:00,73.9,50.1,28.23,SSE,152,5.4,9.6,43,0.00,,---,0.00,VWS V14.01,2013-09-27 09:42:00,
2013-09-27 04:47:00,73.9,50.1,28.23,SE,125,3.1,9.6,43,0.00,,---,0.00,VWS V14.01,2013-09-27 09:47:00,
2013-09-27 04:52:00,73.9,50.1,28.23,SE,136,6.3,9.6,43,0.00,,---,0.00,VWS V14.01,2013-09-27 09:52:00,
2013-09-27 04:57:00,73.9,50.1,28.23,SE,126,3.6,9.6,43,0.00,,---,0.00,VWS V14.01,2013-09-27 09:57:00,
2013-09-27 05:02:00,73.9,50.1,28.23,SE,130,3.1,5.8,43,0.00,,---,0.00,VWS V14.01,2013-09-27 10:02:00,
2013-09-27 05:07:00,73.8,49.9,28.23,SSE,147,5.4,7.2,43,0.00,,---,0.00,VWS V14.01,2013-09-27 10:07:00,
2013-09-27 05:12:00,73.8,49.9,28.23,SSE,149,7.6,8.1,43,0.00,,---,0.00,VWS V14.01,2013-09-27 10:12:00,
2013-09-27 05:17:00,73.6,49.7,28.23,SE,127,3.6,8.1,43,0.00,,---,0.00,VWS V14.01,2013-09-27 10:17:00,
2013-09-27 05:22:00,73.4,49.6,28.23,SE,134,4.0,8.1,43,0.00,,---,0.00,VWS V14.01,2013-09-27 10:22:00,
2013-09-27 05:28:00,73.2,49.4,28.23,SSE,148,3.6,8.1,43,0.00,,---,0.00,VWS V14.01,2013-09-27 10:28:00,
2013-09-27 05:33:00,73.2,50.0,28.23,SSE,153,2.7,8.1,44,0.00,,---,0.00,VWS V14.01,2013-09-27 10:33:00,
2013-09-27 05:38:00,73.0,49.9,28.23,SE,140,3.6,8.1,44,0.00,,---,0.00,VWS V14.01,2013-09-27 10:38:00,
2013-09-27 05:43:00,72.9,49.7,28.23,ESE,123,3.1,8.1,44,0.00,,---,0.00,VWS V14.01,2013-09-27 10:43:00,
2013-09-27 05:48:00,72.7,49.5,28.23,South,176,5.4,8.1,44,0.00,,---,0.00,VWS V14.01,2013-09-27 10:48:00,
2013-09-27 05:53:00,72.5,49.4,28.26,SSE,147,3.1,8.1,44,0.00,,---,0.00,VWS V14.01,2013-09-27 10:53:00,
2013-09-27 05:58:00,72.5,49.4,28.26,SE,139,2.7,8.1,44,0.00,,---,0.00,VWS V14.01,2013-09-27 10:58:00,
2013-09-27 06:03:00,72.3,49.2,28.26,SE,127,3.1,5.4,44,0.00,,---,0.00,VWS V14.01,2013-09-27 11:03:00,
2013-09-27 06:09:00,72.1,49.7,28.23,SSW,200,4.0,7.2,45,0.00,,---,0.00,VWS V14.01,2013-09-27 11:09:00,
2013-09-27 06:14:00,72.0,49.5,28.23,SSE,155,4.0,7.2,45,0.00,,---,0.00,VWS V14.01,2013-09-27 11:14:00,
2013-09-27 06:19:00,71.8,49.3,28.23,SSE,148,3.1,8.1,45,0.00,,---,0.00,VWS V14.01,2013-09-27 11:19:00,
2013-09-27 06:24:00,71.6,49.2,28.26,SE,133,4.0,8.1,45,0.00,,---,0.00,VWS V14.01,2013-09-27 11:24:00,
2013-09-27 06:29:00,71.4,49.6,28.26,SE,131,3.6,8.1,46,0.00,,---,0.00,VWS V14.01,2013-09-27 11:29:00,
2013-09-27 06:34:00,71.2,49.4,28.26,SE,143,5.8,8.1,46,0.00,,---,0.00,VWS V14.01,2013-09-27 11:34:00,
2013-09-27 06:39:00,71.2,49.4,28.26,SE,146,4.0,8.1,46,0.00,,---,0.00,VWS V14.01,2013-09-27 11:39:00,
2013-09-27 06:44:00,71.1,49.3,28.26,SE,146,5.4,8.1,46,0.00,,---,0.00,VWS V14.01,2013-09-27 11:44:00,
2013-09-27 06:49:00,70.9,49.1,28.26,SE,145,4.9,8.1,46,0.00,,---,0.00,VWS V14.01,2013-09-27 11:49:00,
2013-09-27 06:54:00,70.9,49.7,28.26,SSE,153,5.4,8.7,47,0.00,,---,0.00,VWS V14.01,2013-09-27 11:54:00,
2013-09-27 07:00:00,70.9,49.1,28.26,ESE,117,3.6,8.7,46,0.00,,---,0.00,VWS V14.01,2013-09-27 12:00:00,
2013-09-27 07:05:00,70.9,49.1,28.26,SE,139,2.7,5.4,46,0.00,,---,0.00,VWS V14.01,2013-09-27 12:05:00,
2013-09-27 07:10:00,70.7,48.9,28.26,ESE,108,4.0,6.3,46,0.00,,---,0.00,VWS V14.01,2013-09-27 12:10:00,
2013-09-27 07:15:00,70.7,48.9,28.26,SSW,192,2.7,6.7,46,0.00,,---,0.00,VWS V14.01,2013-09-27 12:15:00,
2013-09-27 07:20:00,70.5,49.3,28.26,SE,132,5.4,6.7,47,0.00,,---,0.00,VWS V14.01,2013-09-27 12:20:00,
2013-09-27 07:26:00,70.3,49.2,28.26,ESE,106,3.6,6.7,47,0.00,,---,0.00,VWS V14.01,2013-09-27 12:26:00,
2013-09-27 07:31:00,70.3,49.2,28.26,ESE,114,4.0,6.7,47,0.00,,---,0.00,VWS V14.01,2013-09-27 12:31:00,
2013-09-27 07:36:00,70.3,49.2,28.26,SSE,147,3.1,6.7,47,0.00,,---,0.00,VWS V14.01,2013-09-27 12:36:00,
2013-09-27 07:41:00,70.3,49.2,28.26,ESE,112,5.8,7.6,47,0.00,,---,0.00,VWS V14.01,2013-09-27 12:41:00,
2013-09-27 07:46:00,70.3,49.2,28.26,ESE,121,5.4,7.6,47,0.00,,---,0.00,VWS V14.01,2013-09-27 12:46:00,
2013-09-27 07:51:00,70.3,49.7,28.26,ESE,111,5.4,7.6,48,0.00,,---,0.00,VWS V14.01,2013-09-27 12:51:00,
2013-09-27 07:56:00,70.3,49.7,28.26,SE,136,4.0,7.6,48,0.00,,---,0.00,VWS V14.01,2013-09-27 12:56:00,
2013-09-27 08:01:00,70.3,49.7,28.26,ESE,111,2.2,4.0,48,0.00,,---,0.00,VWS V14.01,2013-09-27 13:01:00,
2013-09-27 08:06:00,70.2,49.6,28.26,SE,144,3.6,6.3,48,0.00,,---,0.00,VWS V14.01,2013-09-27 13:06:00,
2013-09-27 08:11:00,70.2,50.1,28.26,SE,128,4.9,7.6,49,0.00,,---,0.00,VWS V14.01,2013-09-27 13:11:00,
2013-09-27 08:17:00,70.2,50.1,28.26,ESE,111,5.8,7.6,49,0.00,,---,0.00,VWS V14.01,2013-09-27 13:17:00,
2013-09-27 08:22:00,70.2,50.1,28.26,SE,146,4.0,7.6,49,0.00,,---,0.00,VWS V14.01,2013-09-27 13:22:00,
2013-09-27 08:27:00,70.3,50.8,28.26,South,169,6.3,7.6,50,0.00,,---,0.00,VWS V14.01,2013-09-27 13:27:00,
2013-09-27 08:32:00,70.5,51.0,28.26,SE,129,2.7,8.3,50,0.00,,---,0.00,VWS V14.01,2013-09-27 13:32:00,
2013-09-27 08:37:00,70.7,51.2,28.26,South,187,5.4,8.3,50,0.00,,---,0.00,VWS V14.01,2013-09-27 13:37:00,
2013-09-27 08:42:00,70.9,51.3,28.26,ESE,116,5.4,8.3,50,0.00,,---,0.00,VWS V14.01,2013-09-27 13:42:00,
2013-09-27 08:47:00,71.2,51.7,28.26,SE,138,2.7,8.7,50,0.00,,---,0.00,VWS V14.01,2013-09-27 13:47:00,
2013-09-27 08:52:00,71.4,51.8,28.26,SE,138,3.6,8.7,50,0.00,,---,0.00,VWS V14.01,2013-09-27 13:52:00,
2013-09-27 08:57:00,71.6,51.5,28.26,SW,218,7.6,8.7,49,0.00,,---,0.00,VWS V14.01,2013-09-27 13:57:00,
2013-09-27 09:03:00,72.0,51.8,28.26,SE,138,5.8,8.7,49,0.00,,---,0.00,VWS V14.01,2013-09-27 14:03:00,
2013-09-27 09:08:00,72.1,51.9,28.26,SSE,159,7.6,10.1,49,0.00,,---,0.00,VWS V14.01,2013-09-27 14:08:00,
2013-09-27 09:13:00,72.3,52.1,28.26,SSE,147,3.6,10.1,49,0.00,,---,0.00,VWS V14.01,2013-09-27 14:13:00,
2013-09-27 09:18:00,72.5,51.7,28.26,SE,146,5.4,10.1,48,0.00,,---,0.00,VWS V14.01,2013-09-27 14:18:00,
2013-09-27 09:23:00,72.9,52.0,28.26,ESE,116,3.6,10.1,48,0.00,,---,0.00,VWS V14.01,2013-09-27 14:23:00,
2013-09-27 09:28:00,73.0,52.2,28.26,South,175,5.4,10.1,48,0.00,,---,0.00,VWS V14.01,2013-09-27 14:28:00,
2013-09-27 09:33:00,73.4,52.0,28.26,SSE,148,3.1,12.3,47,0.00,,---,0.00,VWS V14.01,2013-09-27 14:33:00,
2013-09-27 09:38:00,73.8,52.3,28.26,ENE,57,3.1,12.3,47,0.00,,---,0.00,VWS V14.01,2013-09-27 14:38:00,
2013-09-27 09:43:00,74.1,52.0,28.26,SE,134,3.6,12.3,46,0.00,,---,0.00,VWS V14.01,2013-09-27 14:43:00,
2013-09-27 09:49:00,74.7,51.9,28.26,SE,128,8.7,12.3,45,0.00,,---,0.00,VWS V14.01,2013-09-27 14:49:00,
2013-09-27 09:54:00,75.6,52.1,28.26,ESE,116,4.0,12.3,44,0.00,,---,0.00,VWS V14.01,2013-09-27 14:54:00,
2013-09-27 09:59:00,76.3,52.8,28.26,SE,128,5.4,12.3,44,0.00,,---,0.00,VWS V14.01,2013-09-27 14:59:00,
2013-09-27 10:04:00,77.2,52.3,28.26,ESE,120,7.2,11.0,42,0.00,,---,0.00,VWS V14.01,2013-09-27 15:04:00,
2013-09-27 10:09:00,77.7,52.8,28.26,SE,135,6.3,12.3,42,0.00,,---,0.00,VWS V14.01,2013-09-27 15:09:00,
2013-09-27 10:14:00,78.1,53.2,28.26,SSE,163,6.3,12.3,42,0.00,,---,0.00,VWS V14.01,2013-09-27 15:14:00,
2013-09-27 10:19:00,78.4,53.5,28.26,SSE,164,6.3,12.3,42,0.00,,---,0.00,VWS V14.01,2013-09-27 15:19:00,
2013-09-27 10:24:00,79.0,54.0,28.26,ESE,115,4.0,12.3,42,0.00,,---,0.00,VWS V14.01,2013-09-27 15:24:00,
2013-09-27 10:29:00,79.5,53.8,28.26,WSW,253,3.6,12.3,41,0.00,,---,0.00,VWS V14.01,2013-09-27 15:29:00,
2013-09-27 10:35:00,79.7,53.9,28.26,ESE,120,6.3,12.3,41,0.00,,---,0.00,VWS V14.01,2013-09-27 15:35:00,
2013-09-27 10:40:00,80.2,54.4,28.26,SE,128,3.6,12.3,41,0.00,,---,0.00,VWS V14.01,2013-09-27 15:40:00,
2013-09-27 10:45:00,80.6,54.1,28.26,ESE,106,5.8,13.2,40,0.00,,---,0.00,VWS V14.01,2013-09-27 15:45:00,
2013-09-27 10:50:00,81.1,54.5,28.26,SE,125,5.4,13.2,40,0.00,,---,0.00,VWS V14.01,2013-09-27 15:50:00,
2013-09-27 10:55:00,81.7,54.3,28.26,ENE,60,3.6,13.2,39,0.00,,---,0.00,VWS V14.01,2013-09-27 15:55:00,
2013-09-27 11:00:00,82.0,55.4,28.26,ESE,109,5.8,6.3,40,0.00,,---,0.00,VWS V14.01,2013-09-27 16:00:00,
2013-09-27 11:05:00,82.6,55.1,28.26,SE,133,9.6,10.5,39,0.00,,---,0.00,VWS V14.01,2013-09-27 16:05:00,
2013-09-27 11:10:00,83.1,54.9,28.26,ESE,104,10.1,10.5,38,0.00,,---,0.00,VWS V14.01,2013-09-27 16:10:00,
2013-09-27 11:15:00,83.3,55.8,28.26,South,171,5.8,15.0,39,0.00,,---,0.00,VWS V14.01,2013-09-27 16:15:00,
2013-09-27 11:21:00,83.7,55.4,28.26,SE,146,5.8,15.0,38,0.00,,---,0.00,VWS V14.01,2013-09-27 16:21:00,
2013-09-27 11:26:00,83.8,55.5,28.26,South,169,5.8,15.0,38,0.00,,---,0.00,VWS V14.01,2013-09-27 16:26:00,
2013-09-27 11:31:00,84.2,55.9,28.26,SSE,156,5.4,15.0,38,0.00,,---,0.00,VWS V14.01,2013-09-27 16:31:00,
2013-09-27 11:36:00,84.6,55.5,28.26,SE,138,3.1,16.8,37,0.00,,---,0.00,VWS V14.01,2013-09-27 16:36:00,
2013-09-27 11:41:00,84.9,56.5,28.26,ESE,113,6.3,16.8,38,0.00,,---,0.00,VWS V14.01,2013-09-27 16:41:00,
2013-09-27 11:46:00,85.3,55.3,28.26,SSE,160,4.9,16.8,36,0.00,,---,0.00,VWS V14.01,2013-09-27 16:46:00,
2013-09-27 11:51:00,85.6,56.4,28.26,SSE,160,6.3,16.8,37,0.00,,---,0.00,VWS V14.01,2013-09-27 16:51:00,
2013-09-27 11:57:00,85.8,56.6,28.26,ESE,118,5.4,16.8,37,0.00,,---,0.00,VWS V14.01,2013-09-27 16:57:00,
2013-09-27 12:02:00,86.0,56.0,28.26,SE,124,2.7,7.6,36,0.00,,---,0.00,VWS V14.01,2013-09-27 17:02:00,
2013-09-27 12:07:00,86.0,56.0,28.26,SSE,161,3.1,11.4,36,0.00,,---,0.00,VWS V14.01,2013-09-27 17:07:00,
2013-09-27 12:12:00,86.4,57.0,28.26,ESE,119,4.0,11.4,37,0.00,,---,0.00,VWS V14.01,2013-09-27 17:12:00,
2013-09-27 12:17:00,86.7,56.6,28.26,ESE,116,2.7,11.4,36,0.00,,---,0.00,VWS V14.01,2013-09-27 17:17:00,
2013-09-27 12:22:00,86.9,57.5,28.26,South,180,7.6,11.4,37,0.00,,---,0.00,VWS V14.01,2013-09-27 17:22:00,
2013-09-27 12:27:00,87.1,56.1,28.26,SE,129,6.3,11.4,35,0.00,,---,0.00,VWS V14.01,2013-09-27 17:27:00,
2013-09-27 12:32:00,87.1,56.1,28.26,ESE,108,7.6,11.4,35,0.00,,---,0.00,VWS V14.01,2013-09-27 17:32:00,
2013-09-27 12:37:00,87.3,56.3,28.26,East,82,9.6,11.4,35,0.00,,---,0.00,VWS V14.01,2013-09-27 17:37:00,
2013-09-27 12:42:00,87.3,57.1,28.23,ESE,111,5.4,11.4,36,0.00,,---,0.00,VWS V14.01,2013-09-27 17:42:00,
2013-09-27 12:47:00,87.6,56.6,28.23,ESE,114,5.4,11.4,35,0.00,,---,0.00,VWS V14.01,2013-09-27 17:47:00,
2013-09-27 12:53:00,88.2,56.3,28.23,NNW,334,4.0,11.4,34,0.00,,---,0.00,VWS V14.01,2013-09-27 17:53:00,
2013-09-27 12:58:00,88.5,55.8,28.23,SSE,164,5.8,11.4,33,0.00,,---,0.00,VWS V14.01,2013-09-27 17:58:00,
2013-09-27 13:03:00,88.5,55.8,28.23,NNE,31,10.1,13.2,33,0.00,,---,0.00,VWS V14.01,2013-09-27 18:03:00,
2013-09-27 13:08:00,88.5,55.8,28.23,ESE,119,5.8,13.2,33,0.00,,---,0.00,VWS V14.01,2013-09-27 18:08:00,
2013-09-27 13:13:00,88.5,56.6,28.23,ESE,115,5.8,13.2,34,0.00,,---,0.00,VWS V14.01,2013-09-27 18:13:00,
2013-09-27 13:18:00,88.7,55.9,28.23,SSE,159,5.8,13.2,33,0.00,,---,0.00,VWS V14.01,2013-09-27 18:18:00,
2013-09-27 13:23:00,88.5,55.8,28.23,ENE,74,7.6,13.2,33,0.00,,---,0.00,VWS V14.01,2013-09-27 18:23:00,
2013-09-27 13:28:00,88.7,55.9,28.23,SSE,150,5.4,13.2,33,0.00,,---,0.00,VWS V14.01,2013-09-27 18:28:00,
2013-09-27 13:33:00,88.9,56.1,28.23,ESE,120,7.6,13.2,33,0.00,,---,0.00,VWS V14.01,2013-09-27 18:33:00,
2013-09-27 13:38:00,89.1,55.4,28.23,WSW,247,6.3,13.2,32,0.00,,---,0.00,VWS V14.01,2013-09-27 18:38:00,
2013-09-27 13:44:00,89.1,55.4,28.23,ESE,113,7.6,13.6,32,0.00,,---,0.00,VWS V14.01,2013-09-27 18:44:00,
2013-09-27 13:49:00,89.1,55.4,28.23,ESE,120,3.6,13.6,32,0.00,,---,0.00,VWS V14.01,2013-09-27 18:49:00,
2013-09-27 13:54:00,89.2,55.5,28.23,East,101,6.3,13.6,32,0.00,,---,0.00,VWS V14.01,2013-09-27 18:54:00,
2013-09-27 13:59:00,89.4,55.7,28.23,ESE,118,6.3,13.6,32,0.00,,---,0.00,VWS V14.01,2013-09-27 18:59:00,
2013-09-27 14:04:00,89.6,54.1,28.23,South,178,8.1,11.9,30,0.00,,---,0.00,VWS V14.01,2013-09-27 19:04:00,
2013-09-27 14:09:00,89.6,55.0,28.23,SSE,152,5.8,13.2,31,0.00,,---,0.00,VWS V14.01,2013-09-27 19:09:00,
2013-09-27 14:14:00,89.4,54.8,28.23,West,272,5.8,13.2,31,0.00,,---,0.00,VWS V14.01,2013-09-27 19:14:00,
2013-09-27 14:19:00,89.4,54.8,28.23,SW,217,10.5,13.2,31,0.00,,---,0.00,VWS V14.01,2013-09-27 19:19:00,
2013-09-27 14:24:00,89.4,54.8,28.20,SE,128,6.3,13.2,31,0.00,,---,0.00,VWS V14.01,2013-09-27 19:24:00,
2013-09-27 14:30:00,89.8,55.1,28.20,SSE,149,6.3,13.2,31,0.00,,---,0.00,VWS V14.01,2013-09-27 19:30:00,
2013-09-27 14:35:00,90.0,55.3,28.20,ESE,103,3.1,13.2,31,0.00,,---,0.00,VWS V14.01,2013-09-27 19:35:00,
2013-09-27 14:40:00,90.3,54.7,28.20,SE,141,3.6,13.2,30,0.00,,---,0.00,VWS V14.01,2013-09-27 19:40:00,
2013-09-27 14:45:00,90.3,54.7,28.20,SSE,158,5.4,13.2,30,0.00,,---,0.00,VWS V14.01,2013-09-27 19:45:00,
2013-09-27 14:50:00,89.8,54.2,28.20,SE,135,8.1,13.2,30,0.00,,---,0.00,VWS V14.01,2013-09-27 19:50:00,
2013-09-27 14:55:00,89.6,54.1,28.20,West,270,7.6,13.2,30,0.00,,---,0.00,VWS V14.01,2013-09-27 19:55:00,
2013-09-27 15:00:00,89.6,54.1,28.20,ESE,114,5.4,8.7,30,0.00,,---,0.00,VWS V14.01,2013-09-27 20:00:00,
2013-09-27 15:05:00,89.8,54.2,28.20,East,84,5.4,10.1,30,0.00,,---,0.00,VWS V14.01,2013-09-27 20:05:00,
2013-09-27 15:10:00,89.6,54.1,28.20,SE,129,10.1,10.5,30,0.00,,---,0.00,VWS V14.01,2013-09-27 20:10:00,
2013-09-27 15:15:00,89.4,53.9,28.20,ESE,122,7.6,10.5,30,0.00,,---,0.00,VWS V14.01,2013-09-27 20:15:00,
2013-09-27 15:21:00,89.4,53.9,28.20,SE,144,10.1,13.6,30,0.00,,---,0.00,VWS V14.01,2013-09-27 20:21:00,
2013-09-27 15:26:00,89.1,53.6,28.20,SE,125,8.3,13.6,30,0.00,,---,0.00,VWS V14.01,2013-09-27 20:26:00,
2013-09-27 15:31:00,88.7,53.3,28.20,ESE,117,6.3,13.6,30,0.00,,---,0.00,VWS V14.01,2013-09-27 20:31:00,
2013-09-27 15:36:00,89.2,53.8,28.20,ESE,108,3.1,13.6,30,0.00,,---,0.00,VWS V14.01,2013-09-27 20:36:00,
2013-09-27 15:41:00,89.6,53.2,28.20,SE,146,5.4,13.6,29,0.00,,---,0.00,VWS V14.01,2013-09-27 20:41:00,
2013-09-27 15:46:00,89.8,53.3,28.20,SSE,153,10.1,13.6,29,0.00,,---,0.00,VWS V14.01,2013-09-27 20:46:00,
2013-09-27 15:51:00,89.6,53.2,28.20,SSE,147,8.3,13.6,29,0.00,,---,0.00,VWS V14.01,2013-09-27 20:51:00,
2013-09-27 15:56:00,89.6,53.2,28.20,East,95,3.6,15.0,29,0.00,,---,0.00,VWS V14.01,2013-09-27 20:56:00,
2013-09-27 16:01:00,89.8,52.4,28.20,SSE,157,5.8,8.7,28,0.00,,---,0.00,VWS V14.01,2013-09-27 21:01:00,
2013-09-27 16:06:00,90.1,52.7,28.20,SSE,153,4.0,10.5,28,0.00,,---,0.00,VWS V14.01,2013-09-27 21:06:00,
2013-09-27 16:12:00,90.0,52.5,28.20,ESE,123,6.3,11.9,28,0.00,,---,0.00,VWS V14.01,2013-09-27 21:12:00,
2013-09-27 16:17:00,90.0,52.5,28.20,SE,135,3.6,11.9,28,0.00,,---,0.00,VWS V14.01,2013-09-27 21:17:00,
2013-09-27 16:22:00,90.0,52.5,28.20,ESE,112,7.6,11.9,28,0.00,,---,0.00,VWS V14.01,2013-09-27 21:22:00,
2013-09-27 16:27:00,90.0,52.5,28.20,ESE,114,3.1,11.9,28,0.00,,---,0.00,VWS V14.01,2013-09-27 21:27:00,
2013-09-27 16:32:00,90.0,52.5,28.20,ESE,113,8.3,11.9,28,0.00,,---,0.00,VWS V14.01,2013-09-27 21:32:00,
2013-09-27 16:37:00,89.6,52.2,28.20,ESE,123,8.3,11.9,28,0.00,,---,0.00,VWS V14.01,2013-09-27 21:37:00,
2013-09-27 16:42:00,89.1,52.7,28.20,ESE,110,4.0,11.9,29,0.00,,---,0.00,VWS V14.01,2013-09-27 21:42:00,
2013-09-27 16:47:00,88.7,52.4,28.20,SSE,160,5.8,11.9,29,0.00,,---,0.00,VWS V14.01,2013-09-27 21:47:00,
2013-09-27 16:53:00,88.7,52.4,28.20,SE,132,5.8,11.9,29,0.00,,---,0.00,VWS V14.01,2013-09-27 21:53:00,
2013-09-27 16:58:00,88.5,52.2,28.20,SSE,155,6.3,11.9,29,0.00,,---,0.00,VWS V14.01,2013-09-27 21:58:00,
2013-09-27 17:03:00,88.5,52.2,28.20,SE,127,6.3,8.1,29,0.00,,---,0.00,VWS V14.01,2013-09-27 22:03:00,
2013-09-27 17:08:00,88.5,52.2,28.20,SSE,160,8.7,9.6,29,0.00,,---,0.00,VWS V14.01,2013-09-27 22:08:00,
2013-09-27 17:13:00,88.3,52.1,28.20,ESE,109,4.0,10.5,29,0.00,,---,0.00,VWS V14.01,2013-09-27 22:13:00,
2013-09-27 17:18:00,88.2,51.9,28.20,SE,138,4.0,10.5,29,0.00,,---,0.00,VWS V14.01,2013-09-27 22:18:00,
2013-09-27 17:23:00,88.0,51.8,28.20,WSW,258,6.3,10.5,29,0.00,,---,0.00,VWS V14.01,2013-09-27 22:23:00,
2013-09-27 17:28:00,87.4,52.2,28.20,South,176,5.8,10.5,30,0.00,,---,0.00,VWS V14.01,2013-09-27 22:28:00,
2013-09-27 17:33:00,87.1,51.9,28.20,ESE,121,3.1,10.5,30,0.00,,---,0.00,VWS V14.01,2013-09-27 22:33:00,
2013-09-27 17:39:00,86.5,52.3,28.20,SW,236,6.3,10.5,31,0.00,,---,0.00,VWS V14.01,2013-09-27 22:39:00,
2013-09-27 17:44:00,86.2,52.0,28.20,SE,141,3.1,10.5,31,0.00,,---,0.00,VWS V14.01,2013-09-27 22:44:00,
2013-09-27 17:49:00,86.2,52.0,28.20,ESE,119,4.9,10.5,31,0.00,,---,0.00,VWS V14.01,2013-09-27 22:49:00,
2013-09-27 17:54:00,86.2,52.0,28.20,ESE,122,7.6,10.5,31,0.00,,---,0.00,VWS V14.01,2013-09-27 22:54:00,
2013-09-27 17:59:00,86.4,52.2,28.20,SE,124,3.1,11.0,31,0.00,,---,0.00,VWS V14.01,2013-09-27 22:59:00,
2013-09-27 18:04:00,86.4,52.2,28.20,SE,125,7.6,11.4,31,0.00,,---,0.00,VWS V14.01,2013-09-27 23:04:00,
2013-09-27 18:09:00,86.5,52.3,28.20,SSE,147,7.6,11.4,31,0.00,,---,0.00,VWS V14.01,2013-09-27 23:09:00,
2013-09-27 18:14:00,86.4,52.2,28.20,SE,130,5.4,11.4,31,0.00,,---,0.00,VWS V14.01,2013-09-27 23:14:00,
2013-09-27 18:19:00,86.2,52.0,28.20,SSE,156,2.7,11.4,31,0.00,,---,0.00,VWS V14.01,2013-09-27 23:19:00,
2013-09-27 18:24:00,85.8,52.6,28.20,SE,138,3.6,11.4,32,0.00,,---,0.00,VWS V14.01,2013-09-27 23:24:00,
2013-09-27 18:30:00,85.5,52.3,28.20,ESE,114,4.0,11.4,32,0.00,,---,0.00,VWS V14.01,2013-09-27 23:30:00,
2013-09-27 18:35:00,85.3,51.2,28.20,South,186,4.0,11.4,31,0.00,,---,0.00,VWS V14.01,2013-09-27 23:35:00,
2013-09-27 18:40:00,85.1,51.1,28.17,SE,136,2.7,11.4,31,0.00,,---,0.00,VWS V14.01,2013-09-27 23:40:00,
2013-09-27 18:45:00,84.9,50.9,28.17,SE,146,3.6,11.4,31,0.00,,---,0.00,VWS V14.01,2013-09-27 23:45:00,
2013-09-27 18:50:00,84.6,50.6,28.17,ESE,118,2.7,11.4,31,0.00,,---,0.00,VWS V14.01,2013-09-27 23:50:00,
2013-09-27 18:55:00,84.0,51.0,28.17,SSW,202,4.0,11.4,32,0.00,,---,0.00,VWS V14.01,2013-09-27 23:55:00,
2013-09-27 19:00:00,83.7,51.5,28.17,SSE,153,4.9,7.6,33,0.00,,---,0.00,VWS V14.01,2013-09-28 00:00:00,
2013-09-27 19:05:00,83.1,51.1,28.17,NE,49,4.9,10.5,33,0.00,,---,0.00,VWS V14.01,2013-09-28 00:05:00,
2013-09-27 19:10:00,82.8,50.8,28.17,ESE,117,3.1,10.5,33,0.00,,---,0.00,VWS V14.01,2013-09-28 00:10:00,
2013-09-27 19:15:00,82.4,51.2,28.17,SE,129,3.6,10.5,34,0.00,,---,0.00,VWS V14.01,2013-09-28 00:15:00,
2013-09-27 19:21:00,82.0,50.9,28.17,SE,145,3.1,10.5,34,0.00,,---,0.00,VWS V14.01,2013-09-28 00:21:00,
2013-09-27 19:26:00,81.9,50.8,28.17,SSE,159,2.7,10.5,34,0.00,,---,0.00,VWS V14.01,2013-09-28 00:26:00,
2013-09-27 19:31:00,81.7,50.6,28.17,SW,219,5.4,10.5,34,0.00,,---,0.00,VWS V14.01,2013-09-28 00:31:00,
2013-09-27 19:36:00,81.5,50.5,28.17,South,170,3.6,10.5,34,0.00,,---,0.00,VWS V14.01,2013-09-28 00:36:00,
2013-09-27 19:41:00,81.3,50.3,28.17,SE,141,4.9,10.5,34,0.00,,---,0.00,VWS V14.01,2013-09-28 00:41:00,
2013-09-27 19:46:00,81.1,50.1,28.17,SSW,201,4.9,10.5,34,0.00,,---,0.00,VWS V14.01,2013-09-28 00:46:00,
2013-09-27 19:51:00,81.0,50.8,28.17,SSE,163,2.7,10.5,35,0.00,,---,0.00,VWS V14.01,2013-09-28 00:51:00,
2013-09-27 19:56:00,80.6,50.5,28.17,SSW,205,2.2,10.5,35,0.00,,---,0.00,VWS V14.01,2013-09-28 00:56:00,
2013-09-27 20:01:00,80.2,50.9,28.17,ESE,117,2.7,4.0,36,0.00,,---,0.00,VWS V14.01,2013-09-28 01:01:00,
2013-09-27 20:07:00,79.9,51.3,28.17,ESE,112,2.7,6.3,37,0.00,,---,0.00,VWS V14.01,2013-09-28 01:07:00,
2013-09-27 20:12:00,79.5,51.0,28.17,South,178,3.6,10.1,37,0.00,,---,0.00,VWS V14.01,2013-09-28 01:12:00,
2013-09-27 20:17:00,79.3,51.5,28.17,SW,217,3.1,10.1,38,0.00,,---,0.00,VWS V14.01,2013-09-28 01:17:00,
2013-09-27 20:22:00,79.2,51.4,28.17,ESE,107,4.0,10.1,38,0.00,,---,0.00,VWS V14.01,2013-09-28 01:22:00,
2013-09-27 20:27:00,79.0,51.2,28.17,SSE,153,6.3,10.1,38,0.00,,---,0.00,VWS V14.01,2013-09-28 01:27:00,
2013-09-27 20:32:00,79.0,51.2,28.17,SE,145,5.4,10.1,38,0.00,,---,0.00,VWS V14.01,2013-09-28 01:32:00,
2013-09-27 20:37:00,78.8,51.1,28.17,SSE,159,3.1,10.1,38,0.00,,---,0.00,VWS V14.01,2013-09-28 01:37:00,
2013-09-27 20:42:00,78.8,50.4,28.20,SSE,148,4.0,10.1,37,0.00,,---,0.00,VWS V14.01,2013-09-28 01:42:00,
2013-09-27 20:47:00,78.6,50.9,28.20,SSE,156,4.0,10.1,38,0.00,,---,0.00,VWS V14.01,2013-09-28 01:47:00,
2013-09-27 20:53:00,78.6,50.9,28.20,SSE,153,4.0,10.1,38,0.00,,---,0.00,VWS V14.01,2013-09-28 01:53:00,
2013-09-27 20:58:00,78.6,50.9,28.20,South,172,5.8,10.1,38,0.00,,---,0.00,VWS V14.01,2013-09-28 01:58:00,
2013-09-27 21:03:00,78.4,50.8,28.20,WSW,241,3.1,7.6,38,0.00,,---,0.00,VWS V14.01,2013-09-28 02:03:00,
2013-09-27 21:08:00,78.3,51.3,28.20,East,100,4.0,7.6,39,0.00,,---,0.00,VWS V14.01,2013-09-28 02:08:00,
2013-09-27 21:13:00,78.1,51.1,28.20,SSW,193,5.8,11.0,39,0.00,,---,0.00,VWS V14.01,2013-09-28 02:13:00,
2013-09-27 21:18:00,78.1,51.1,28.20,South,175,3.1,11.0,39,0.00,,---,0.00,VWS V14.01,2013-09-28 02:18:00,
2013-09-27 21:23:00,77.9,51.7,28.20,SE,138,2.2,11.0,40,0.00,,---,0.00,VWS V14.01,2013-09-28 02:23:00,
2013-09-27 21:28:00,77.9,51.7,28.20,WSW,251,5.8,11.0,40,0.00,,---,0.00,VWS V14.01,2013-09-28 02:28:00,
2013-09-27 21:33:00,77.9,51.7,28.20,SSE,166,4.0,11.0,40,0.00,,---,0.00,VWS V14.01,2013-09-28 02:33:00,
2013-09-27 21:39:00,77.9,51.7,28.20,South,175,2.7,11.0,40,0.00,,---,0.00,VWS V14.01,2013-09-28 02:39:00,
2013-09-27 21:44:00,77.7,51.5,28.20,SSE,165,2.2,11.0,40,0.00,,---,0.00,VWS V14.01,2013-09-28 02:44:00,
2013-09-27 21:49:00,77.5,51.3,28.20,South,178,2.7,11.0,40,0.00,,---,0.00,VWS V14.01,2013-09-28 02:49:00,
2013-09-27 21:54:00,77.4,51.2,28.20,SSE,158,2.7,11.0,40,0.00,,---,0.00,VWS V14.01,2013-09-28 02:54:00,
2013-09-27 21:59:00,77.2,51.7,28.20,SE,130,5.8,11.0,41,0.00,,---,0.00,VWS V14.01,2013-09-28 02:59:00,
2013-09-27 22:04:00,77.2,51.7,28.20,SE,129,3.1,6.3,41,0.00,,---,0.00,VWS V14.01,2013-09-28 03:04:00,
2013-09-27 22:09:00,77.0,51.5,28.20,SW,216,2.7,6.3,41,0.00,,---,0.00,VWS V14.01,2013-09-28 03:09:00,
2013-09-27 22:14:00,77.0,51.5,28.20,SSE,158,3.1,6.3,41,0.00,,---,0.00,VWS V14.01,2013-09-28 03:14:00,
2013-09-27 22:19:00,76.8,52.0,28.20,South,178,3.6,8.7,42,0.00,,---,0.00,VWS V14.01,2013-09-28 03:19:00,
2013-09-27 22:24:00,76.8,52.0,28.20,SE,138,4.0,8.7,42,0.00,,---,0.00,VWS V14.01,2013-09-28 03:24:00,
2013-09-27 22:30:00,76.6,51.8,28.20,ESE,116,5.4,10.5,42,0.00,,---,0.00,VWS V14.01,2013-09-28 03:30:00,
2013-09-27 22:35:00,76.6,51.8,28.20,SE,145,5.8,10.5,42,0.00,,---,0.00,VWS V14.01,2013-09-28 03:35:00,
2013-09-27 22:40:00,76.5,51.7,28.20,SE,137,3.6,10.5,42,0.00,,---,0.00,VWS V14.01,2013-09-28 03:40:00,
2013-09-27 22:45:00,76.5,51.7,28.20,SSW,197,8.3,10.5,42,0.00,,---,0.00,VWS V14.01,2013-09-28 03:45:00,
2013-09-27 22:50:00,76.3,51.5,28.20,SE,131,3.6,10.5,42,0.00,,---,0.00,VWS V14.01,2013-09-28 03:50:00,
2013-09-27 22:55:00,76.3,51.5,28.20,SE,125,3.6,10.5,42,0.00,,---,0.00,VWS V14.01,2013-09-28 03:55:00,
2013-09-27 23:00:00,76.3,51.5,28.20,ESE,118,5.8,5.8,42,0.00,,---,0.00,VWS V14.01,2013-09-28 04:00:00,
2013-09-27 23:01:00,76.3,51.5,28.20,SE,145,8.3,8.3,42,0.00,,---,0.00,VWS V14.01,2013-09-28 04:01:00,
2013-09-27 23:02:00,76.3,51.5,28.20,SE,137,5.4,8.3,42,0.00,,---,0.00,VWS V14.01,2013-09-28 04:02:00,
2013-09-27 23:04:00,76.3,51.5,28.20,South,169,5.4,8.3,42,0.00,,---,0.00,VWS V14.01,2013-09-28 04:04:00,
2013-09-27 23:09:00,76.1,51.4,28.20,SE,141,4.0,8.3,42,0.00,,---,0.00,VWS V14.01,2013-09-28 04:09:00,
2013-09-27 23:14:00,76.1,51.4,28.20,SE,135,9.6,9.6,42,0.00,,---,0.00,VWS V14.01,2013-09-28 04:14:00,
2013-09-27 23:19:00,75.9,51.2,28.20,ESE,123,5.8,10.1,42,0.00,,---,0.00,VWS V14.01,2013-09-28 04:19:00,
2013-09-27 23:24:00,75.9,51.2,28.17,SE,145,4.0,10.1,42,0.00,,---,0.00,VWS V14.01,2013-09-28 04:24:00,
2013-09-27 23:29:00,75.9,51.2,28.17,SSE,150,4.9,11.0,42,0.00,,---,0.00,VWS V14.01,2013-09-28 04:29:00,
2013-09-27 23:34:00,75.9,51.2,28.17,South,179,4.9,11.0,42,0.00,,---,0.00,VWS V14.01,2013-09-28 04:34:00,
2013-09-27 23:39:00,75.9,51.2,28.17,SE,141,5.4,11.0,42,0.00,,---,0.00,VWS V14.01,2013-09-28 04:39:00,
2013-09-27 23:45:00,75.7,51.0,28.17,South,173,4.9,11.0,42,0.00,,---,0.00,VWS V14.01,2013-09-28 04:45:00,
2013-09-27 23:50:00,75.7,51.0,28.17,SE,130,4.9,11.0,42,0.00,,---,0.00,VWS V14.01,2013-09-28 04:50:00,
2013-09-27 23:55:00,75.7,51.0,28.17,SSE,154,4.0,11.0,42,0.00,,---,0.00,VWS V14.01,2013-09-28 04:55:00,